Total_Precipitation_Accumulation
1.49 1.43 1.29 1.26 1.18 1.05 0.99 0.94 0.87 0.81 0.73 0.65 0.57 0.52 0.53 0.56 0.56 0.56 0.51 0.49 0.57 0.82 1.16 1.33 1.33 1.35 1.40 1.44 1.44 1.37 1.29 1.22 1.12 1.06 1.01 0.98 0.97 0.98 0.97 0.95 0.93 0.93 0.95
1.66 1.51 1.37 1.33 1.27 1.12 1.01 1.00 0.94 0.93 0.86 0.78 0.68 0.59 0.51 0.52 0.52 0.56 0.56 0.53 0.55 0.64 0.89 1.18 1.34 1.50 1.65 1.73 1.67 1.58 1.47 1.40 1.33 1.25 1.16 1.08 1.04 1.00 1.00 0.99 0.95 0.94 0.97
1.89 1.77 1.56 1.41 1.33 1.32 1.27 1.21 1.16 1.04 0.94 0.86 0.80 0.72 0.64 0.59 0.54 0.52 0.54 0.54 0.55 0.56 0.67 0.94 1.21 1.44 1.67 1.81 1.82 1.75 1.63 1.50 1.45 1.40 1.30 1.18 1.09 1.03 1.02 1.01 1.01 1.01 1.01
2.12 2.00 1.83 1.65 1.55 1.54 1.51 1.39 1.26 1.18 1.02 0.90 0.83 0.78 0.71 0.66 0.60 0.55 0.52 0.51 0.49 0.48 0.55 0.71 0.92 1.17 1.47 1.68 1.80 1.83 1.79 1.62 1.49 1.45 1.35 1.25 1.21 1.17 1.16 1.15 1.13 1.14 1.15
2.34 2.13 1.91 1.79 1.80 1.77 1.65 1.55 1.38 1.34 1.27 1.08 0.93 0.85 0.80 0.74 0.67 0.62 0.57 0.53 0.50 0.46 0.48 0.56 0.69 0.80 1.05 1.43 1.73 1.90 1.96 1.88 1.72 1.59 1.51 1.41 1.37 1.35 1.34 1.33 1.33 1.33 1.38
2.76 2.54 2.13 1.96 1.97 1.98 1.90 1.76 1.65 1.52 1.44 1.42 1.27 1.01 0.87 0.82 0.78 0.71 0.65 0.58 0.54 0.50 0.49 0.50 0.56 0.59 0.71 1.00 1.42 1.76 2.00 2.08 1.95 1.81 1.70 1.64 1.58 1.53 1.53 1.56 1.57 1.59 1.63
2.79 2.93 2.62 2.29 2.21 2.16 2.12 2.08 2.05 1.94 1.73 1.68 1.67 1.40 1.09 0.93 0.86 0.77 0.73 0.71 0.64 0.60 0.59 0.55 0.57 0.58 0.63 0.81 1.05 1.31 1.61 1.92 2.04 1.99 1.90 1.82 1.79 1.77 1.81 1.84 1.84 1.80 1.80
2.84 2.90 2.97 2.76 2.44 2.35 2.34 2.33 2.25 2.10 2.01 1.97 1.91 1.81 1.60 1.38 1.07 0.87 0.81 0.76 0.71 0.70 0.71 0.70 0.68 0.68 0.68 0.76 0.83 0.95 1.14 1.48 1.82 2.02 2.03 1.95 1.91 1.92 2.03 2.14 2.22 2.21 2.15
2.97 2.89 2.87 2.92 2.79 2.59 2.49 2.49 2.53 2.51 2.36 2.25 2.14 2.18 1.92 1.59 1.28 1.05 0.95 0.90 0.87 0.84 0.79 0.81 0.83 0.81 0.80 0.81 0.78 0.80 0.90 1.14 1.49 1.91 2.21 2.31 2.25 2.26 2.36 2.45 2.52 2.61 2.58
3.07 2.97 2.94 2.95 2.93 2.82 2.64 2.61 2.67 2.70 2.72 2.63 2.46 2.27 2.02 1.68 1.54 1.31 1.08 1.05 1.09 1.07 1.02 0.96 0.93 0.91 0.90 0.88 0.87 0.88 0.93 1.02 1.33 1.78 2.28 2.61 2.73 2.87 3.05 3.07 3.13 3.20 3.12
3.26 3.10 3.01 2.98 2.99 2.95 2.87 2.81 2.79 2.79 2.79 2.75 2.68 2.50 2.31 1.96 1.67 1.56 1.34 1.19 1.24 1.20 1.17 1.12 1.06 1.01 0.99 0.97 0.93 0.99 1.13 1.18 1.40 1.77 2.27 2.80 3.13 3.34 3.55 3.65 3.72 3.76 3.75
3.15 3.05 3.02 2.95 2.89 2.86 2.78 2.76 2.77 2.77 2.77 2.69 2.59 2.44 2.35 2.18 1.91 1.80 1.62 1.39 1.39 1.36 1.35 1.31 1.23 1.14 1.09 1.03 1.01 1.22 1.23 1.28 1.46 1.74 2.18 2.69 3.06 3.32 3.51 3.69 3.82 3.85 3.93
2.87 2.79 2.82 2.85 2.83 2.77 2.75 2.70 2.66 2.59 2.64 2.67 2.56 2.39 2.23 1.99 1.84 1.89 1.88 1.69 1.52 1.38 1.38 1.38 1.33 1.33 1.31 1.29 1.28 1.44 1.35 1.40 1.50 1.75 2.11 2.48 2.61 2.71 2.86 3.04 3.30 3.44 3.54
2.66 2.65 2.67 2.72 2.78 2.80 2.75 2.75 2.68 2.54 2.48 2.47 2.45 2.38 2.30 2.10 1.91 1.86 1.89 1.96 1.91 1.65 1.45 1.33 1.27 1.38 1.48 1.53 1.62 1.72 1.45 1.60 1.60 1.68 1.93 2.14 2.18 2.09 2.18 2.41 2.68 2.90 3.05
2.46 2.53 2.65 2.64 2.60 2.64 2.61 2.60 2.58 2.44 2.32 2.27 2.21 2.24 2.24 2.13 2.05 1.94 1.91 2.04 2.30 2.25 1.84 1.49 1.43 1.49 1.59 1.64 1.79 1.65 1.40 1.60 1.67 1.64 1.72 1.80 1.83 1.78 1.78 1.92 2.11 2.31 2.43
2.18 2.24 2.35 2.45 2.45 2.44 2.49 2.54 2.43 2.28 2.20 2.06 1.96 2.01 2.05 2.04 2.09 2.09 2.07 2.08 2.21 2.40 2.19 1.63 1.47 1.50 1.59 1.63 1.77 1.60 1.48 1.69 1.60 1.56 1.57 1.59 1.58 1.57 1.57 1.62 1.77 1.92 2.09
2.00 1.97 2.06 2.14 2.15 2.13 2.16 2.25 2.24 2.19 2.16 2.08 1.97 1.87 1.81 1.85 1.99 2.06 2.14 2.17 2.20 2.29 2.27 1.77 1.46 1.41 1.49 1.50 1.48 1.39 1.38 1.40 1.36 1.50 1.44 1.43 1.46 1.46 1.44 1.47 1.55 1.66 1.79
1.88 1.86 1.88 1.96 1.98 1.95 1.93 1.97 1.97 1.96 2.00 1.99 1.97 1.94 1.85 1.83 1.97 2.05 2.15 2.17 2.12 2.07 2.08 1.88 1.54 1.40 1.37 1.32 1.29 1.27 1.23 1.22 1.21 1.43 1.43 1.41 1.42 1.41 1.37 1.37 1.42 1.50 1.58
1.77 1.81 1.78 1.81 1.83 1.86 1.89 1.89 1.89 1.89 1.85 1.84 1.90 1.96 1.91 1.93 1.99 1.99 2.00 1.98 1.91 1.82 1.77 1.72 1.53 1.37 1.33 1.32 1.34 1.28 1.19 1.15 1.11 1.24 1.32 1.33 1.40 1.44 1.39 1.40 1.43 1.45 1.43
1.61 1.69 1.70 1.67 1.71 1.76 1.82 1.85 1.91 1.98 1.96 1.91 1.90 1.93 1.93 1.93 1.89 1.89 1.89 1.84 1.79 1.78 1.74 1.73 1.62 1.47 1.38 1.32 1.38 1.38 1.31 1.19 1.14 1.09 1.21 1.24 1.31 1.42 1.45 1.36 1.27 1.26 1.24
1.52 1.56 1.62 1.63 1.64 1.73 1.83 1.87 1.87 1.95 2.05 2.04 1.97 1.90 1.84 1.93 1.92 1.87 1.84 1.82 1.87 1.95 1.92 1.88 1.76 1.57 1.39 1.32 1.30 1.23 1.25 1.23 1.20 1.12 1.17 1.16 1.15 1.13 1.19 1.29 1.31 1.29 1.32
1.55 1.58 1.64 1.69 1.71 1.75 2.08 2.14 2.03 1.99 2.01 1.99 1.91 1.81 1.74 1.83 1.80 1.85 1.88 1.87 1.97 2.10 2.18 2.09 1.86 1.58 1.25 1.09 1.09 1.23 1.37 1.50 1.45 1.14 1.12 1.07 1.01 1.07 1.05 1.09 1.28 1.34 1.36
1.65 1.72 1.78 1.83 1.86 1.94 2.09 1.99 1.99 1.85 1.82 1.79 1.70 1.61 1.54 1.49 1.56 1.41 1.55 1.71 1.74 1.86 1.94 1.86 1.71 1.37 1.17 1.09 1.27 1.46 1.45 1.45 1.29 1.10 1.23 1.31 1.14 1.08 1.02 1.11 1.29 1.21 1.22
1.77 1.85 1.94 1.94 1.90 1.93 1.93 1.73 1.73 1.61 1.52 1.46 1.41 1.38 1.36 1.31 1.31 1.38 1.43 1.52 1.44 1.37 1.33 1.28 1.25 1.18 1.17 1.24 1.44 1.66 1.69 1.64 1.38 1.19 1.23 1.42 1.25 1.13 1.02 1.06 1.23 1.17 1.19
1.78 1.79 1.80 1.75 1.65 1.60 1.62 1.47 1.42 1.32 1.34 1.28 1.19 1.18 1.21 1.17 1.36 1.59 1.61 1.59 1.39 1.25 1.26 1.31 1.36 1.40 1.52 1.58 1.62 1.81 1.95 2.05 1.85 1.43 1.22 1.28 1.17 1.11 1.09 1.07 1.12 1.21 1.16
1.51 1.41 1.34 1.29 1.22 1.14 1.23 1.28 1.31 1.19 1.18 1.14 1.11 1.11 1.25 1.25 1.46 1.66 1.61 1.63 1.51 1.26 1.22 1.26 1.26 1.25 1.24 1.34 1.55 1.59 1.83 2.22 2.02 1.66 1.21 1.28 1.31 1.40 1.64 1.24 1.07 1.05 1.07